Flag for Switzerland Weather past 2 weeks in Köniz, Bern, Switzerland

Now
63 °F

Clear.


Feels Like: 63 °F
Forecast: 62 / 91 °F
Wind: 1 mph from North

Location: Bern / Belp

Current Time: Jul 3, 2015 at 4:51:08 AM

Latest Report: Jul 3, 2015 at 4:20 AM


Visibility: 10 mi

Pressure: 30.27 "Hg

Humidity: 94%

Dew point: 61 °F

Location of KönizLocation

Historic Weather in Köniz — Graph

°F

Köniz temperature yesterday

Maximum temperature yesterday: 95 °F (at 5:50 PM)
Minimum temperature yesterday: 63 °F (at 3:50 AM)
Average temperature yesterday: 79 °F

Past Weeks' High & Low Weather Summary

 TemperatureHumidityPressure
High95 °F (Jul 2, 5:50 PM)100% (Jun 18, 3:20 AM)30.27 "Hg (Jun 18, 3:20 AM)
Low43 °F (Jun 24, 4:50 AM)24% (Jun 26, 5:20 PM)29.77 "Hg (Jun 22, 9:20 PM)
Average65 °F70%30.12 "Hg
* Reported Jun 18 3:20 AM — Jul 3 3:50 AM, Köniz, Weather by CustomWeather, © 2015

Note: Actual official high and low records may vary slightly from our data, if they occured in-between our weather recording intervals... More about our weather records

Advertising

Köniz weather history for previous 24 hours

 ConditionsComfort  
Time TempWeatherWind HumidityBarometerVisibility
3:50 AM
Fri, Jul 3
64 °FClear.1 mph88%30.27 "Hg10 mi
3:20 AM66 °FClear.1 mph83%30.27 "HgN/A
2:50 AM66 °FClear.2 mph83%30.27 "Hg10 mi
2:20 AM66 °FClear.3 mph83%30.27 "Hg10 mi
1:50 AM68 °FClear.2 mph78%30.27 "Hg10 mi
1:20 AM70 °FClear.1 mph73%30.27 "Hg10 mi
12:50 AM70 °FClear.2 mph73%30.24 "Hg10 mi
12:20 AM70 °FPassing clouds.3 mph73%30.24 "HgN/A
11:50 PM
Thu, Jul 2
70 °FClear.3 mph73%30.24 "Hg10 mi
11:20 PM70 °FClear.2 mph78%30.24 "Hg10 mi
10:50 PM72 °FMild.2 mph73%30.21 "HgN/A
10:20 PM72 °FSunny.2 mph78%30.21 "Hg10 mi
9:50 PM77 °FSunny.2 mph61%30.21 "Hg10 mi
9:20 PM81 °FSunny.1 mph54%30.18 "Hg10 mi
8:50 PM84 °FSunny.3 mph55%30.18 "Hg10 mi
8:20 PM88 °FSunny.2 mph46%30.15 "Hg10 mi
7:50 PM91 °FPassing clouds.6 mph38%30.15 "HgN/A
7:20 PM95 °FPassing clouds.5 mph34%30.15 "HgN/A
6:50 PM93 °FPassing clouds.7 mph36%30.15 "HgN/A
6:20 PM95 °FPassing clouds.3 mph34%30.15 "HgN/A
5:50 PM95 °FPassing clouds.7 mph32%30.15 "HgN/A
5:20 PM93 °FPassing clouds.9 mph36%30.15 "HgN/A
4:50 PM93 °FPassing clouds.6 mph41%30.15 "HgN/A
4:20 PM93 °FPassing clouds.6 mph36%30.15 "HgN/A
3:50 PM93 °FPassing clouds.8 mph41%30.15 "HgN/A
3:20 PM91 °FPassing clouds.6 mph41%30.15 "HgN/A
2:50 PM91 °FPassing clouds.5 mph44%30.15 "HgN/A
2:20 PM91 °FPassing clouds.5 mph41%30.15 "HgN/A
1:50 PM90 °FPassing clouds.6 mph46%30.15 "HgN/A
1:20 PM88 °FSunny.3 mph49%30.15 "Hg10 mi
12:50 PM88 °FSunny.1 mph49%30.15 "Hg10 mi
12:20 PM86 °FPassing clouds.5 mph52%30.18 "HgN/A
11:50 AM84 °FPassing clouds.6 mph55%30.18 "HgN/A
11:20 AM82 °FSunny.2 mph55%30.18 "Hg10 mi
10:50 AM82 °FSunny.3 mph58%30.18 "Hg10 mi
10:20 AM82 °FSunny.2 mph58%30.18 "Hg10 mi
9:50 AM79 °FSunny.1 mph61%30.18 "Hg10 mi
9:20 AM79 °FSunny.2 mph65%30.18 "Hg10 mi
8:50 AM77 °FSunny.3 mph65%30.18 "Hg10 mi
8:20 AM75 °FSunny.1 mph74%30.18 "Hg10 mi
7:50 AM72 °FSunny.1 mph78%30.18 "Hg10 mi
7:20 AM68 °FSunny.1 mph88%30.18 "Hg10 mi
6:50 AM64 °FSunny.No wind94%30.18 "Hg10 mi
6:20 AM63 °FClear.1 mph94%30.18 "Hg10 mi
5:20 AM63 °FSprinkles. Passing clouds.1 mph94%30.18 "HgN/A
4:50 AM63 °FClear.1 mph94%30.18 "Hg10 mi
4:20 AM63 °FClear.1 mph94%30.18 "Hg10 mi
Weather by CustomWeather, © 2015

See weather overviewHow to use our weather pages